Aérodrome :
LOGIN :

S'inscrire | Disclaimer

   EN    FR    IT 

 










Légende :    VFR   VFR Marginal   IFR   IFR Intensif   IFR Très Intensif
Visi : 
Plafond : 
>= 8 km
>= 3000ft
5 à 8 km
1000 à 3000 ft
1500m à 5 km
500 à 1000 ft
800 à 1500m
200 à 500 ft
< 800m
< 200 ft
Symboles :   Orages  Brouillard  Fortes neiges  Fortes précipitations  Vent > 20 kt
SIGMETs :   Divers  Orages  Givrage  Turbulence  Onde Orograph.  Cendres Volcan.







- Altitude de l'aérodrome : 265 ft


ETSH - Holzdorf AB

DERNIER METAR :
  • 171720Z 18002KT 9999 SCT030 BKN044 00/M00 Q1022 BLU

METARs EXPIRÉS :
  • 171620Z 12001KT 9999 BKN042 SCT180 M01/M01 Q1022 BLU
  • 171600Z VRB02KT 9999 FEW040 SCT160 M01/M02 Q1022 BLU+FCST CANCEL
  • 171520Z 18003KT 9999 FEW045 SCT170 00/M01 Q1021 BLU+BLU TEMPO BLU+

TAF AMD TAF ETSH
Valide du 17 à 15h jusqu'au 18 à 00h UTC


171531Z 1715/1724 17007KT 9999 NSW SCT015 BKN030
TEMPO 1715/1717 15003KT 9999 NSW SCT040 SCT200 CANCEL 1600
Pas de NOTAMs connus pour ce terrain.



MET'MAP, la Météo Aéronautique d'un coup d'oeil ! - Copyright ORBIFLY Décembre 2007 - Disclaimer

ORBIFLY MET'MAP TEAM :

Programmation & Développement : Alexandra Zaïnal
Conception & Développement : Baudouin d'Aumeries
Co-Programmation & Développement : Marc-Olivier Méhu
Soutien technique & logistique : Manuel Goepfert

Contact : metmap@orbifly.com




SOURCES & CREDITS :

   NOAA